Pilot Point AP, Pilot Point,, AK

8:51 PM AKST on November 21, 2019 (GMT -0900)
Pilot Point AP, Pilot Point,

Weather History for PAPN - October, 2019

Change the Weather History Date:

Monday, October 21, 2019

  Actual Average (WUND) Record (WUND)
Temperature  
Mean Temperature 42 °F -  
Max Temperature 48 °F - - (-1)
Min Temperature 36 °F - - (-1)
Degree Days  
Heating Degree Days 22    
Moisture  
Dew Point 36 °F    
Average Humidity 79    
Maximum Humidity 89    
Minimum Humidity 61    
Precipitation  
Precipitation 0.00 in - - ()
Sea Level Pressure  
Sea Level Pressure 29.58 in    
Wind  
Wind Speed 8 mph ()    
Max Wind Speed 14 mph    
Max Gust Speed -    
Visibility 10.0 miles    
Events      
Averages and records for this station are not official NWS values.
T = Trace of Precipitation, MM = Missing Value Source: Averaged Metar Reports

Daily Weather History Graph

Daily Weather History Graph

Search for Another Location

Airport or City:

Astronomy

Oct. 21, 2019 Rise Set
Actual Time 9:17 AM AKDT 7:10 PM AKDT
Civil Twilight 8:38 AM AKDT 7:50 PM AKDT
Nautical Twilight 7:52 AM AKDT 8:35 PM AKDT
Astronomical Twilight 7:07 AM AKDT 9:20 PM AKDT
Moon No Moon Rise 5:29 PM AKDT (10/21)
Length of Visible Light 11h 12m
Length of Day
9h 52m
Waning Gibbous, 47% of the Moon is Illuminated
Oct 21
Waning Gibbous
Oct 27
New
Nov 4
First Quarter
Nov 12
Full
Nov 19
Last Quarter

Hourly Weather History & Observations

Time (AKDT) Temp. Windchill Dew Point Humidity Pressure Visibility Wind Dir Wind Speed Gust Speed Precip Events Conditions
12:56 AM 39.0 °F 32.8 °F 34.0 °F 82% 29.55 in 10.0 mi ESE 9.2 mph - N/A   Overcast
1:56 AM 42.1 °F 34.9 °F 37.0 °F 82% 29.54 in 10.0 mi SE 13.8 mph - N/A   Overcast
2:56 AM 41.0 °F 34.7 °F 36.0 °F 82% 29.54 in 10.0 mi SE 10.4 mph - N/A   Overcast
3:56 AM 42.1 °F 35.7 °F 37.0 °F 82% 29.53 in 10.0 mi SE 11.5 mph - N/A   Overcast
4:56 AM 41.0 °F 34.7 °F 37.0 °F 86% 29.53 in 10.0 mi ESE 10.4 mph - N/A   Partly Cloudy
5:56 AM 39.9 °F 33.9 °F 36.0 °F 86% 29.52 in 10.0 mi ESE 9.2 mph - N/A   Scattered Clouds
6:56 AM 39.9 °F 33.9 °F 37.0 °F 89% 29.53 in 10.0 mi SE 9.2 mph - N/A   Clear
7:56 AM 39.0 °F 32.3 °F 36.0 °F 89% 29.54 in 10.0 mi SE 10.4 mph - N/A   Mostly Cloudy
8:56 AM 39.9 °F 34.5 °F 36.0 °F 86% 29.55 in 10.0 mi SE 8.1 mph - N/A   Scattered Clouds
9:56 AM 39.9 °F 35.8 °F 36.0 °F 86% 29.57 in 10.0 mi SSE 5.8 mph - N/A   Mostly Cloudy
10:56 AM 41.0 °F 36.4 °F 37.0 °F 86% 29.58 in 10.0 mi SE 6.9 mph - N/A   Overcast
11:56 AM 44.1 °F 40.8 °F 37.9 °F 79% 29.59 in 9.0 mi SE 5.8 mph - N/A   Overcast
12:56 PM 46.0 °F 41.9 °F 37.9 °F 73% 29.60 in 10.0 mi South 8.1 mph - N/A   Overcast
1:56 PM 46.9 °F - 36.0 °F 66% 29.60 in 10.0 mi SSW 8.1 mph - N/A   Overcast
2:56 PM 46.9 °F - 36.0 °F 66% 29.60 in 10.0 mi SSW 9.2 mph - N/A   Clear
3:56 PM 46.9 °F - 36.0 °F 66% 29.60 in 10.0 mi South 4.6 mph - N/A   Scattered Clouds
4:56 PM 48.0 °F - 35.1 °F 61% 29.60 in 10.0 mi SW 5.8 mph - N/A   Clear
5:56 PM 46.9 °F - 34.0 °F 61% 29.59 in 10.0 mi Calm Calm - N/A   Overcast
6:56 PM 45.0 °F 41.8 °F 35.1 °F 68% 29.59 in 10.0 mi South 5.8 mph - N/A   Scattered Clouds
7:56 PM 42.1 °F 39.2 °F 35.1 °F 76% 29.61 in 10.0 mi South 4.6 mph - N/A   Partly Cloudy
8:56 PM 39.0 °F 34.8 °F 35.1 °F 86% 29.62 in 10.0 mi SSE 5.8 mph - N/A   Mostly Cloudy
9:56 PM 37.9 °F 31.5 °F 34.0 °F 86% 29.63 in 10.0 mi SE 9.2 mph - N/A   Mostly Cloudy
10:56 PM 37.9 °F 31.5 °F 34.0 °F 86% 29.64 in 10.0 mi SSE 9.2 mph - N/A   Scattered Clouds
11:56 PM 36.0 °F 29.6 °F 33.1 °F 89% 29.65 in 10.0 mi SE 8.1 mph - N/A   Mostly Cloudy